Regional Weather Roundup
Issued by NWS

Home | Current Version | Previous Version | Text Only | Print | Product List | Glossary Off
Versions: 1 2 3 4 5 6 7 8 9 10 11 12 13 14 15 16 17 18 19 20 21 22 23 24 25 26 27 28 29 30 31 32 33 34 35 36 37 38 39 40 41 42 43 44 45 46 47 48 49 50

000
ASUS43 KLMK 210410
RWRKY
KENTUCKY REGIONAL WEATHER ROUNDUP
NATIONAL WEATHER SERVICE LOUISVILLE KY
1200 AM EDT MON APR 21 2014

NOTE "FAIR" INDICATES FEW OR NO CLOUDS BELOW 12,000 FEET
WITH NO SIGNIFICANT WEATHER AND/OR OBSTRUCTIONS TO VISIBILITY.

KYZ001>023-026-027-061>063-070>075-210500-
WESTERN AND SOUTH CENTRAL KENTUCKY

CITY           SKY/WX    TMP DP  RH WIND       PRES   REMARKS
PADUCAH        PTCLDY    59  50  72 CALM      30.08F
HENDERSON      PTCLDY    55  46  71 CALM      30.09F
OWENSBORO      MOCLDY    58  47  66 CALM      30.10F
HOPKINSVILLE   CLEAR     59  46  63 CALM      30.11S
BOWLING GREEN  PTCLDY    57  45  64 CALM      30.11F
GLASGOW        PTCLDY    55  48  76 CALM      30.12F
$$

KYZ024-025-028>034-038-045-046-053-210500-
NORTH CENTRAL KENTUCKY

CITY           SKY/WX    TMP DP  RH WIND       PRES   REMARKS
LOUISVILLE/SDF PTCLDY    62  45  53 CALM      30.10F
LOUISVILLE/LOU PTCLDY    63  44  50 CALM      30.11F
FORT KNOX      PTCLDY    58  44  59 NW1       30.10F
$$

KYZ035>037-039>044-047>052-055>060-089>105-210500-
NORTHEAST KENTUCKY

CITY           SKY/WX    TMP DP  RH WIND       PRES   REMARKS
LEXINGTON      PTCLDY    58  46  64 SE3       30.13S
COVINGTON      CLEAR     57  40  52 CALM      30.11F
FRANKFORT      PTCLDY    52  44  74 CALM      30.11F
$$

KYZ054-064>069-076>088-106>120-210500-
SOUTHEAST KENTUCKY

CITY           SKY/WX    TMP DP  RH WIND       PRES   REMARKS
JACKSON        PTCLDY    67  25  20 VRB3      30.14S
LONDON         PTCLDY    56  44  64 CALM      30.14S
SOMERSET       PTCLDY    55  41  58 CALM      30.14S
MIDDLESBORO    PTCLDY    51  42  71 CALM      30.16S
MONTICELLO     CLEAR     54  44  68 CALM      30.15S
$$




USA.gov is the U.S. government's official web portal to all federal, state and local government web resources and services.